{"data":{"norad_id":67011,"epoch":"2026-09-20T21:49:35.400000Z","epoch_age_seconds":46330,"freshness":"FRESH","line1":"1 67011U 25293J   26263.90943750  .00002342  00000+0  20400-3 0  9991","line2":"2 67011  70.0016 322.0858 0003962 269.7711  90.2994 14.98334598 44131","mean_motion":14.98334598,"eccentricity":0.0003962,"inclination_deg":70.0016,"raan_deg":322.0858,"arg_perigee_deg":269.7711,"mean_anomaly_deg":90.2994,"bstar":0.000204,"rev_number":4413,"period_min":96.106704198257,"perigee_km":569.28801125521,"apogee_km":574.79533283493,"semimajor_km":6950.1786720451,"source":"CELESTRAK","updated_at":"2026-09-21T09:00:36.069873Z"}}